Regional Weather Roundup
Issued by NWS State College, PA

Home | Current Version | Previous Version | Graphics & Text | Print | Product List | Glossary On
Versions: 1 2 3 4 5 6 7 8 9 10 11 12 13 14 15 16 17 18 19 20 21 22 23 24 25 26 27 28 29 30 31 32 33 34 35 36 37 38 39 40 41 42 43 44 45 46 47 48 49 50
000
ASUS41 KCTP 190503
RWRCTP

REGIONAL WEATHER ROUNDUP
NATIONAL WEATHER SERVICE STATE COLLEGE PA
100 AM EDT THU APR 19 2018

Note: "fair" indicates few or no clouds below 12,000 feet with no
significant weather and/or obstructions to visibility.

* = STATION THAT DOES NOT REPORT PRECIPITATION /E.G. RAIN...SNOW...ETC/
    THUNDER OR FOG.

PAZ002>004-007>009-013>016-020>023-029>032-190600-
WESTERN PENNSYLVANIA

CITY           SKY/WX    TMP DP  RH WIND       PRES   REMARKS
ERIE           CLOUDY    34  28  79 NE5       29.78R
MEADVILLE      CLOUDY    32  28  85 NE6       29.74R
FRANKLIN*      CLOUDY    35  31  85 CALM      29.74
NEW CASTLE     LGT RAIN  38  37  97 N5        29.74S
BEAVER COUNTY  NOT AVBL
BUTLER*        LGT RAIN  40  37  89 VRB3      29.73R
PITTSBURGH INT LGT RAIN  44  41  89 N6        29.72R
PITTSBURGH     RAIN      43  42  97 CALM      29.72R FOG
INDIANA*       CLOUDY    43  39  87 CALM      29.74S HAZE
LATROBE        RAIN      45  43  93 NW3       29.74R
WASHINGTON CO* LGT RAIN  43  42  97 N8        29.74R
$$

PAZ004>006-010>012-017>019-024>028-033>037-041-042-045-046-049>053-190600-
CENTRAL PENNSYLVANIA

CITY           SKY/WX    TMP DP  RH WIND       PRES   REMARKS
BRADFORD       CLOUDY    32  26  78 CALM      29.71R
DUBOIS         LGT RAIN  35  32  88 CALM      29.70R FOG
CLEARFIELD     RAIN      39  33  79 N6        29.72R
JOHNSTOWN      LGT RAIN  42  38  85 N8        29.67R FOG
ALTOONA        RAIN      45  37  73 N12       29.69R
STATE COLLEGE  CLOUDY    42  31  65 NE6       29.67F
WILLIAMSPORT   CLOUDY    43  33  68 NE3       29.71F
SELINSGROVE    CLOUDY    46  30  53 NE6       29.72F
FT INDIANTOWN  CLOUDY    47  38  71 E3        29.71S
CAPITAL CITY   CLOUDY    52  35  52 E5        29.69F
HARRISBURG     LGT RAIN  50  37  61 SE5       29.69S
YORK           MOCLDY    49  37  63 SE7       29.67F
$$

PAZ038>040-043-044-047-048-054-055-060>062-067>071-190600-
EASTERN PENNSYLVANIA

CITY           SKY/WX    TMP DP  RH WIND       PRES   REMARKS
SCRANTON       CLOUDY    40  31  70 NE5       29.73F
MOUNT POCONO   CLOUDY    37  29  72 N6        29.70F
ALLENTOWN      CLOUDY    47  32  56 NE5       29.73F
QUAKERTOWN*    CLOUDY    46  36  66 CALM      29.74R
READING        CLOUDY    47  37  68 NE3       29.71F
LANCASTER      CLOUDY    46  39  76 E5        29.69F
COATESVILLE    CLOUDY    46  36  66 CALM      29.72S
POTTSTOWN      CLOUDY    46  34  62 CALM      29.74S
BLUE BELL      CLOUDY    46  34  61 E3        29.74F
DOYLESTOWN     CLOUDY    48  33  56 CALM      29.72F
WILLOW GROVE   NOT AVBL
NORTH PHILA    CLOUDY    51  35  54 E3        29.75F
PHILADELPHIA   CLOUDY    49  37  63 E5        29.73F
$$




USA.gov is the U.S. government's official web portal to all federal, state and local government web resources and services.